Location: Kouroug�
(14.2010°N, 9.1525°W)
Time: 06:03:30
(UTC+00:00)

Daily predictions for brighter satellites

Satellite Brightness Start Highest point End
(mag) Time Altitude Azimuth Time Altitude Azimuth Time Altitude Azimuth
FengYun 1-2 T 4.3 18:45:12 10° SSE 18:50:45 82° ENE 18:56:21 10° N
Cosmos 2034 Rocket 4.3 18:47:52 10° SSE 18:53:55 47° E 18:59:57 10° NNE
Okean 2 3.7 18:50:14 10° N 18:54:20 73° W 18:58:25 10° S
FUSE 4.0 18:49:05 10° WSW 18:54:24 86° SSE 18:59:44 10° ENE
Cosmos 1805 4.5 18:53:32 10° SE 18:56:29 21° E 18:59:26 10° NE
YAOGAN 1 3.7 18:57:47 10° SE 19:01:14 23° ENE 19:04:40 10° NNE
Okean 2 Rocket 3.7 19:01:18 10° SSW 19:05:45 63° W 19:10:10 10° N
Meteor 1-15 Rocket 4.3 19:01:56 10° S 19:07:22 56° E 19:12:52 10° NNE
Cosmos 1025 Rocket 3.9 19:05:47 10° NNE 19:09:35 28° E 19:13:21 10° SE
DELTA 2 R/B (1) 3.9 19:04:18 10° NW 19:09:37 47° NE 19:14:06 14° ESE
Cosmos 2278 Rocket 2.6 19:06:15 10° S 19:11:26 38° ESE 19:16:36 10° NE
MOS 1 Rocket 3.3 19:07:56 10° NNE 19:12:01 45° E 19:16:12 10° S
Meteor 1-21 4.5 19:08:11 10° N 19:13:46 74° W 19:19:22 10° S
NATO 3D Rocket 3.9 19:07:18 10° WSW 19:14:19 75° NNW 19:18:39 15° ENE
IRS-1C Rocket 4.3 19:13:41 10° S 19:18:56 77° WSW 19:24:10 10° NNW
USA 215 3.6 19:13:00 10° SSE 19:19:29 68° SW 19:26:00 10° NW
RESURS DK-1 3.1 19:17:53 10° SSE 19:21:29 30° ESE 19:24:02 16° NE
COSMOS 2455 3.5 19:16:18 10° SSE 19:21:29 31° ESE 19:26:41 10° NE
Cosmos 1707 2.5 19:19:50 10° N 19:23:39 77° E 19:27:28 10° S
Cosmos 1939 Rocket 3.5 19:21:29 10° S 19:25:32 60° W 19:29:37 10° NNW
Delta 128 3.9 19:20:57 10° WNW 19:26:32 71° NNE 19:29:25 24° ESE
Cosmos 1536 Rocket 4.1 19:23:21 10° NNE 19:27:25 34° E 19:31:29 10° SSE
CSL-04 Rocket 4.1 19:25:37 10° SE 19:30:32 37° ENE 19:35:30 10° N
Centaur AC-119 2.5 19:25:50 10° WSW 19:31:41 57° NNW 19:32:49 29° NE
Okean-O 2.7 19:30:34 10° S 19:34:58 78° WSW 19:39:24 10° NNW
CZ-2C R/B 3.2 19:31:25 10° SSE 19:36:24 54° ENE 19:41:40 10° N
Cosmos 1867 3.6 19:31:45 10° NNW 19:37:11 83° WSW 19:42:35 10° SSE
Centaur D-1AR AC-40 3.2 19:21:50 10° W 19:40:14 54° N 19:42:56 27° ENE
Cosmos 1766 3.1 19:37:22 10° S 19:41:15 80° E 19:45:09 10° N
NOSS 3-2 (A) 4.5 19:38:56 10° N 19:46:51 46° ENE 19:51:22 27° ESE
Cosmos 1048 Rocket 4.1 19:42:31 10° N 19:47:46 55° ENE 19:50:29 27° SE
Cosmos 1092 Rocket 4.4 19:51:26 10° NNE 19:56:44 40° ENE 19:56:44 40° ENE
CZ-4C R/B 1.7 19:57:14 10° SSW 20:01:41 74° WNW 20:04:12 27° NNE
H-2A R/B 1.8 20:00:50 37° SSE 20:02:48 75° ENE 20:07:47 10° N
USA 234 3.1 19:59:15 28° NE 20:02:53 71° SE 20:09:24 10° SSW
Intelsat 5-1 Rocket 4.5 19:36:23 10° WSW 20:03:05 70° NNW 20:08:00 31° NE
SJ-11-01 4.2 20:02:10 27° SSE 20:04:47 90° WSW 20:09:29 10° NNW
ARGOS 3.3 20:05:36 51° NE 20:05:36 51° NE 20:10:08 10° N
GPS 2-17 Rocket1 3.8 20:02:19 10° WNW 20:06:31 41° N 20:06:31 41° N
X-37B 2.8 20:03:38 10° SW 20:04:53 22° SW 20:04:53 22° SW
Cosmos 2142 Rocket 4.4 20:05:16 10° S 20:11:32 67° E 20:17:44 10° NNE
Milstar 3 3.9 20:07:02 10° SSW 20:13:32 35° SE 20:13:50 35° SE
DMSP B5D2-2 4.0 20:12:54 10° N 20:18:10 83° WNW 20:23:25 10° SSW
CZ-4 R/B 4.1 20:17:03 10° SW 20:20:05 19° W 20:23:07 10° NW
H-10 deb 4.3 19:23:25 10° WSW 20:24:21 51° S 20:26:40 41° SSE
CZ-2C R/B 3.3 20:20:50 10° N 20:26:18 57° WNW 20:31:46 10° SSW
NOSS 3-2 (C) 4.3 20:18:26 10° N 20:26:22 54° ENE 20:26:22 54° ENE
CZ-2C R/B 4.1 20:30:32 10° NW 20:30:39 11° NW 20:30:39 11° NW
CENTAUR R/B 3.3 20:29:35 10° NNW 20:37:31 60° NE 20:37:31 60° NE
Palapa B4 Rocket 4.2 20:37:32 10° WNW 20:41:48 62° NW 20:41:48 62° NW
ATLAS 2A CENTAUR R/B 4.4 20:37:19 10° WNW 21:28:03 71° NNE 21:28:12 71° NNE
